Auburn, AL

1:57 AM CDT on September 29, 2016 (GMT -0500)
Auburn-opelika-pitts

Weather History for KAUO - June, 2013

Change the Weather History Date:

Tuesday, June 4, 2013

  Actual Average Record
Temperature  
Mean Temperature 82 °F -  
Max Temperature 91 °F - 97 °F (1985)
Min Temperature 73 °F - 53 °F (1961)
Cooling Degree Days 17    
Month to date cooling degree days 42  
Year to date cooling degree days 292  
Since 1 June cooling degree days 42  
Growing Degree Days 32 (Base 50)    
Moisture  
Dew Point 66 °F    
Average Humidity 55    
Maximum Humidity 78    
Minimum Humidity 43    
Precipitation  
Precipitation 0.00 in - 1.35 in (1999)
Month to date precipitation 0.04  
Year to date precipitation 21.59  
Sea Level Pressure  
Sea Level Pressure 29.98 in    
Wind  
Wind Speed 2 mph (NE)    
Max Wind Speed 7 mph    
Max Gust Speed -    
Visibility 10 miles    
Events Thunderstorm    
T = Trace of Precipitation, MM = Missing Value Source: NWS Daily Summary

Daily Weather History Graph

Daily Weather History Graph

Search for Another Location

Airport or City:

Trip Planner

Search our weather history database for the weather conditions in past years. The results will help you decide how hot, cold, wet, or windy it might be!

Date:

Astronomy

Jun. 04, 2013 Rise Set
Actual Time 5:34 AM CDT 7:46 PM CDT
Civil Twilight 5:06 AM CDT 8:14 PM CDT
Nautical Twilight 4:31 AM CDT 8:49 PM CDT
Astronomical Twilight 3:54 AM CDT 9:26 PM CDT
Moon 2:53 AM CDT (6/4) 4:23 PM CDT (6/4)
Length of Visible Light 15h 08m
Length of Day
14h 12m
Waning Crescent, 14% of the Moon is Illuminated
Jun 4
Waning Crescent
Jun 8
New
Jun 16
First Quarter
Jun 23
Full
Jun 29
Last Quarter

Hourly Weather History & Observations

Time (CDT) Temp. Heat Index Dew Point Humidity Pressure Visibility Wind Dir Wind Speed Gust Speed Precip Events Conditions
12:15 AM - - - N/A% 29.97 in 10.0 mi Calm Calm - N/A   Partly Cloudy
12:35 AM - - - N/A% 29.98 in 10.0 mi Calm Calm - N/A   Clear
12:55 AM - - - N/A% 29.97 in 10.0 mi Calm Calm - N/A   Partly Cloudy
1:15 AM - - - N/A% 29.96 in 10.0 mi Calm Calm - N/A   Clear
1:35 AM - - - N/A% 29.96 in 10.0 mi Calm Calm - N/A   Scattered Clouds
1:55 AM - - - N/A% 29.95 in 10.0 mi Calm Calm - N/A   Scattered Clouds
2:15 AM - - - N/A% 29.95 in 10.0 mi Calm Calm - N/A   Partly Cloudy
2:35 AM - - - N/A% 29.95 in 10.0 mi Calm Calm - N/A   Clear
2:55 AM - - - N/A% 29.95 in 10.0 mi Calm Calm - N/A   Clear
3:15 AM - - - N/A% 29.95 in 10.0 mi Calm Calm - N/A   Clear
3:35 AM - - - N/A% 29.95 in 10.0 mi Calm Calm - N/A   Clear
3:55 AM - - - N/A% 29.95 in 10.0 mi Calm Calm - N/A   Clear
4:15 AM - - - N/A% 29.96 in 10.0 mi Calm Calm - N/A   Clear
4:35 AM - - - N/A% 29.97 in 10.0 mi Calm Calm - N/A   Clear
4:55 AM - - - N/A% 29.97 in 10.0 mi Calm Calm - N/A   Clear
5:15 AM - - - N/A% 29.98 in 10.0 mi Calm Calm - N/A   Clear
5:35 AM - - - N/A% 29.98 in 9.0 mi Calm Calm - N/A   Clear
5:55 AM - - - N/A% 29.98 in 9.0 mi Calm Calm - N/A   Clear
6:15 AM - - - N/A% 29.99 in 9.0 mi Calm Calm - N/A   Clear
6:35 AM - - - N/A% 29.99 in 9.0 mi Calm Calm - N/A   Clear
6:55 AM - - - N/A% 30.00 in 10.0 mi Calm Calm - N/A   Clear
7:15 AM 73.4 °F - 66.2 °F 78% 30.00 in 10.0 mi Calm Calm - N/A   Clear
7:35 AM - - - N/A% 30.00 in 10.0 mi Calm Calm - N/A   Scattered Clouds
7:55 AM - - - N/A% 30.00 in 10.0 mi Calm Calm - N/A   Partly Cloudy
8:15 AM - - - N/A% 30.00 in 10.0 mi Calm Calm - N/A   Clear
8:35 AM - - - N/A% 30.00 in 10.0 mi Calm Calm - N/A   Clear
8:55 AM 80.6 °F 82.7 °F 66.2 °F 61% 30.01 in 10.0 mi North 3.5 mph - N/A   Clear
9:15 AM 82.4 °F 84.6 °F 66.2 °F 58% 30.01 in 10.0 mi NNE 3.5 mph - N/A   Clear
9:35 AM 82.4 °F 84.6 °F 66.2 °F 58% 30.01 in 10.0 mi Calm Calm - N/A   Clear
9:55 AM - - - N/A% 30.01 in 10.0 mi Calm Calm - N/A   Partly Cloudy
10:15 AM 82.4 °F 84.6 °F 66.2 °F 58% 30.02 in 10.0 mi East 4.6 mph - N/A   Partly Cloudy
10:35 AM 84.2 °F 86.6 °F 66.2 °F 55% 30.02 in 10.0 mi West 3.5 mph - N/A   Clear
10:55 AM 86.0 °F 88.2 °F 66.2 °F 51% 30.02 in 10.0 mi NNE 5.8 mph - N/A   Partly Cloudy
11:15 AM 84.2 °F 86.6 °F 66.2 °F 55% 30.02 in 10.0 mi Calm Calm - N/A   Mostly Cloudy
11:35 AM 84.2 °F 86.6 °F 66.2 °F 55% 30.02 in 10.0 mi ESE 3.5 mph - N/A   Overcast
11:55 AM 84.2 °F 86.6 °F 66.2 °F 55% 30.01 in 10.0 mi East 5.8 mph - N/A   Overcast
12:15 PM 84.2 °F 86.6 °F 66.2 °F 55% 30.01 in 10.0 mi East 4.6 mph - N/A   Mostly Cloudy
12:35 PM 86.0 °F 89.4 °F 68.0 °F 55% 30.00 in 10.0 mi South 9.2 mph - N/A   Mostly Cloudy
12:55 PM 87.8 °F 91.4 °F 68.0 °F 52% 30.00 in 10.0 mi North 6.9 mph - N/A   Mostly Cloudy
1:15 PM 84.2 °F 87.3 °F 68.0 °F 58% 30.00 in 10.0 mi North 5.8 mph - N/A   Mostly Cloudy
1:35 PM 86.0 °F 90.4 °F 69.8 °F 58% 29.99 in 10.0 mi North 5.8 mph - N/A   Mostly Cloudy
1:55 PM 87.8 °F 89.4 °F 64.4 °F 46% 29.99 in 10.0 mi SSE 4.6 mph - N/A   Partly Cloudy
2:15 PM 89.6 °F 91.1 °F 64.4 °F 43% 29.98 in 10.0 mi NNE 3.5 mph - N/A   Clear
2:35 PM 91.4 °F 94.0 °F 66.2 °F 43% 29.97 in 10.0 mi NE 4.6 mph - N/A   Clear
2:56 PM 89.6 °F 92.2 °F 66.2 °F 46% 29.97 in 10.0 mi NNE 5.8 mph - N/A   Scattered Clouds
3:15 PM 89.6 °F 92.2 °F 66.2 °F 46% 29.97 in 10.0 mi North 6.9 mph - N/A   Overcast
3:35 PM 87.8 °F 89.4 °F 64.4 °F 46% 29.96 in 10.0 mi NE 6.9 mph - N/A   Mostly Cloudy
3:55 PM 87.8 °F 89.4 °F 64.4 °F 46% 29.96 in 10.0 mi NNE 3.5 mph - N/A   Mostly Cloudy
4:15 PM 87.8 °F 89.4 °F 64.4 °F 46% 29.95 in 10.0 mi North 4.6 mph - N/A   Mostly Cloudy
4:35 PM 87.8 °F 90.4 °F 66.2 °F 49% 29.95 in 10.0 mi Calm Calm - N/A   Overcast
4:55 PM 86.0 °F 88.2 °F 66.2 °F 51% 29.95 in 10.0 mi Calm Calm - N/A   Overcast
5:15 PM 86.0 °F 88.2 °F 66.2 °F 51% 29.95 in 10.0 mi NE 4.6 mph - N/A   Mostly Cloudy
5:35 PM 86.0 °F 88.2 °F 66.2 °F 51% 29.95 in 10.0 mi NNE 5.8 mph - N/A   Partly Cloudy
5:55 PM 86.0 °F 88.2 °F 66.2 °F 51% 29.96 in 10.0 mi NNE 3.5 mph - N/A   Clear
6:15 PM 86.0 °F 88.2 °F 66.2 °F 51% 29.95 in 10.0 mi NNE 4.6 mph - N/A   Clear
6:35 PM 86.0 °F 88.2 °F 66.2 °F 51% 29.96 in 10.0 mi NE 4.6 mph - N/A   Clear
6:55 PM 84.2 °F 86.6 °F 66.2 °F 55% 29.96 in 10.0 mi NE 6.9 mph - N/A   Clear
7:15 PM 84.2 °F 86.6 °F 66.2 °F 55% 29.96 in 10.0 mi NE 3.5 mph - N/A   Clear
7:35 PM 84.2 °F 85.6 °F 64.4 °F 51% 29.96 in 10.0 mi Calm Calm - N/A   Scattered Clouds
7:55 PM 82.4 °F 84.6 °F 66.2 °F 58% 29.97 in 10.0 mi Calm Calm - N/A   Mostly Cloudy
8:15 PM 80.6 °F 82.7 °F 66.2 °F 61% 29.97 in 10.0 mi Calm Calm - N/A   Mostly Cloudy
8:35 PM 80.6 °F 82.7 °F 66.2 °F 61% 29.97 in 10.0 mi Calm Calm - N/A   Mostly Cloudy
8:55 PM 80.6 °F 82.7 °F 66.2 °F 61% 29.98 in 10.0 mi Calm Calm - N/A   Scattered Clouds
9:15 PM 80.6 °F 82.7 °F 66.2 °F 61% 29.98 in 10.0 mi Calm Calm - N/A   Scattered Clouds
9:35 PM 80.6 °F 82.7 °F 66.2 °F 61% 29.98 in 10.0 mi Calm Calm - N/A Thunderstorm Partly Cloudy
9:55 PM 78.8 °F - 66.2 °F 65% 29.99 in 10.0 mi Calm Calm - N/A   Scattered Clouds
10:15 PM 78.8 °F - 66.2 °F 65% 30.01 in 10.0 mi Calm Calm - N/A Thunderstorm Overcast
10:35 PM 78.8 °F - 66.2 °F 65% 30.00 in 10.0 mi Calm Calm - N/A   Mostly Cloudy
10:55 PM - - - N/A% 29.99 in 10.0 mi Calm Calm - N/A   Mostly Cloudy
11:15 PM - - - N/A% 30.01 in 10.0 mi Calm Calm - N/A   Mostly Cloudy
11:35 PM - - - N/A% 30.01 in 10.0 mi Calm Calm - N/A   Mostly Cloudy
11:55 PM - - - N/A% 30.01 in 10.0 mi Calm Calm - N/A   Mostly Cloudy